Weather History for Enid, OK

Change the Weather History Date:

Wednesday, December 12, 2012

  Actual Average Record
Temperature  
Mean Temperature 36 °F -  
Max Temperature 55 °F 47 °F 60 °F (2006)
Min Temperature 17 °F 30 °F 8 °F (2000)
Degree Days  
Heating Degree Days 29    
Moisture  
Dew Point 17 °F    
Average Humidity 56    
Maximum Humidity 80    
Minimum Humidity 24    
Precipitation  
Precipitation 0.00 in - - ()
Sea Level Pressure  
Sea Level Pressure 30.12 in    
Wind  
Wind Speed 8 mph (South)    
Max Wind Speed 29 mph    
Max Gust Speed 34 mph    
Visibility 10 miles    
Events      
Averages and records for this station are not official NWS values.
T = Trace of Precipitation, MM = Missing Value Source: NWS Daily Summary

Daily Weather History Graph

Daily Weather History Graph

Search for Another Location

Airport:

Trip Planner

Search our weather history database for the weather conditions in past years. The results will help you decide how hot, cold, wet, or windy it might be!

Date:

Astronomy

Dec. 12, 2012 Rise Set
Actual Time 7:33 AM CST 5:16 PM CST
Civil Twilight 7:05 AM CST 5:45 PM CST
Nautical Twilight 6:32 AM CST 6:17 PM CST
Astronomical Twilight 6:01 AM CST 6:48 PM CST
Moon 6:40 AM CST (12/12) 4:54 PM CST (12/12)
Length of Visible Light 10h 40m
Length of Day
9h 42m
Waning Crescent, 1% of the Moon is Illuminated
Dec 12
Waning Crescent
Dec 13
New
Dec 19
First Quarter
Dec 28
Full
Jan 4
Last Quarter

Hourly Weather History & Observations

Time (CST) Temp. Windchill Dew Point Humidity Pressure Visibility Wind Dir Wind Speed Gust Speed Precip Events Conditions
12:15 AM 23.0 °F 17.0 °F 14.0 °F 68% 30.15 in 10.0 mi SSE 4.6 mph - N/A   Clear
12:35 AM 23.0 °F 17.0 °F 14.0 °F 68% 30.15 in 10.0 mi South 4.6 mph - N/A   Clear
12:55 AM 23.0 °F 17.0 °F 14.0 °F 68% 30.14 in 10.0 mi South 4.6 mph - N/A   Clear
1:15 AM 23.0 °F 17.0 °F 14.0 °F 68% 30.14 in 10.0 mi SSE 4.6 mph - N/A   Clear
1:35 AM 21.2 °F 13.6 °F 14.0 °F 74% 30.14 in 10.0 mi South 5.8 mph - N/A   Clear
1:55 AM 21.2 °F 13.6 °F 14.0 °F 74% 30.14 in 10.0 mi South 5.8 mph - N/A   Clear
2:15 AM 21.2 °F 12.6 °F 14.0 °F 74% 30.14 in 10.0 mi South 6.9 mph - N/A   Clear
2:35 AM 21.2 °F 14.9 °F 14.0 °F 74% 30.14 in 10.0 mi South 4.6 mph - N/A   Clear
2:55 AM 21.2 °F 16.4 °F 14.0 °F 74% 30.14 in 10.0 mi SSW 3.5 mph - N/A   Clear
3:15 AM 21.2 °F 16.4 °F 14.0 °F 74% 30.14 in 10.0 mi South 3.5 mph - N/A   Clear
3:55 AM 21.2 °F 16.4 °F 14.0 °F 74% 30.14 in 10.0 mi South 3.5 mph - N/A   Clear
4:15 AM 19.4 °F 11.5 °F 14.0 °F 80% 30.14 in 10.0 mi South 5.8 mph - N/A   Clear
4:35 AM 19.4 °F 12.8 °F 12.2 °F 74% 30.14 in 10.0 mi South 4.6 mph - N/A   Clear
4:55 AM 19.4 °F - 14.0 °F 80% 30.15 in 10.0 mi Calm Calm - N/A   Clear
6:20 AM 17.6 °F - 12.2 °F 79% 30.15 in 10.0 mi Calm Calm - N/A   Clear
7:50 AM 17.6 °F 6.4 °F 10.4 °F 73% 30.17 in 10.0 mi SSE 9.2 mph - N/A   Clear
8:50 AM 28.4 °F 17.5 °F 17.6 °F 64% 30.18 in 10.0 mi South 13.8 mph - N/A   Clear
9:50 AM 39.2 °F 30.2 °F 12.2 °F 33% 30.19 in 10.0 mi South 17.3 mph 23.0 mph N/A   Clear
10:50 AM 44.6 °F 36.4 °F 12.2 °F 27% 30.17 in 10.0 mi South 20.7 mph 27.6 mph N/A   Clear
11:50 AM 48.2 °F - 14.0 °F 25% 30.15 in 10.0 mi South 20.7 mph 28.8 mph N/A   Clear
12:50 PM 51.8 °F - 17.6 °F 26% 30.11 in 10.0 mi South 25.3 mph 32.2 mph N/A   Clear
1:50 PM 53.6 °F - 17.6 °F 24% 30.09 in 10.0 mi South 28.8 mph 34.5 mph N/A   Clear
2:52 PM 55.4 °F - 19.4 °F 25% 30.07 in 10.0 mi South 23.0 mph 32.2 mph N/A   Clear
3:50 PM 53.6 °F - 19.4 °F 26% 30.06 in 10.0 mi South 25.3 mph 33.4 mph N/A   Clear
5:50 PM 51.8 °F - 19.4 °F 28% 30.07 in 10.0 mi SSE 17.3 mph - N/A   Clear
6:50 PM 41.0 °F 34.3 °F 19.4 °F 42% 30.08 in 10.0 mi South 11.5 mph - N/A   Clear
7:50 PM 37.4 °F 29.8 °F 19.4 °F 48% 30.08 in 10.0 mi SE 11.5 mph - N/A   Clear
8:15 PM 37.4 °F 29.8 °F 19.4 °F 48% 30.08 in 10.0 mi SSE 11.5 mph - N/A   Clear
8:35 PM 35.6 °F 28.0 °F 19.4 °F 52% 30.08 in 10.0 mi SSE 10.4 mph - N/A   Clear
8:50 PM 35.6 °F 28.6 °F 19.4 °F 52% 30.09 in 10.0 mi SSE 9.2 mph - N/A   Clear
8:55 PM 33.8 °F 26.4 °F 19.4 °F 56% 30.09 in 10.0 mi SSE 9.2 mph - N/A   Clear
9:15 PM 33.8 °F 26.4 °F 19.4 °F 56% 30.09 in 10.0 mi South 9.2 mph - N/A   Clear
9:35 PM 33.8 °F 26.4 °F 19.4 °F 56% 30.09 in 10.0 mi South 9.2 mph - N/A   Clear
9:55 PM 33.8 °F 26.4 °F 19.4 °F 56% 30.09 in 10.0 mi SSE 9.2 mph - N/A   Clear
10:15 PM 33.8 °F 27.0 °F 19.4 °F 56% 30.09 in 10.0 mi South 8.1 mph - N/A   Clear
10:35 PM 32.0 °F 25.6 °F 19.4 °F 60% 30.09 in 10.0 mi South 6.9 mph - N/A   Clear
10:55 PM 32.0 °F 25.6 °F 19.4 °F 60% 30.09 in 10.0 mi South 6.9 mph - N/A   Clear
11:15 PM 35.6 °F 27.1 °F 23.0 °F 60% 30.09 in 10.0 mi South 12.7 mph - N/A   Clear
11:35 PM 39.2 °F 30.8 °F 23.0 °F 52% 30.09 in 10.0 mi South 15.0 mph - N/A   Clear
11:55 PM 41.0 °F 32.8 °F 23.0 °F 49% 30.09 in 10.0 mi South 16.1 mph - N/A   Clear